Location: Unspecified
(0.0000°N, 0.0000°E)
Time: 17:24:05
(UTC+00:00)

STARLINK 1050 - Pass Details

Date: 22 January 2020
Orbit: 548 x 551 km, 53.0° (Epoch: 23 January)

Event Time Altitude Azimuth Distance (km) Brightness Sun altitude
Rises 04:30:11 0° 205° (SSW) 2,722 7.1 -23.7°
Reaches altitude 10° 04:32:28 10° 199° (SSW) 1,825 6.3 -23.2°
Maximum altitude 04:36:29 48° 124° (SE) 720 4.5 -22.2°
Drops below altitude 10° 04:40:28 10° 49° (NE) 1,814 6.6 -21.3°
Sets 04:42:44 0° 43° (NE) 2,703 7.4 -20.8°
